EDT,Max TemperatureF,Mean TemperatureF,Min TemperatureF,Max Dew PointF,MeanDew PointF,Min DewpointF,Max Humidity, Mean Humidity, Min Humidity, Max Sea Level PressureIn, Mean Sea Level PressureIn, Min Sea Level PressureIn, Max VisibilityMiles, Mean VisibilityMiles, Min VisibilityMiles, Max Wind SpeedMPH, Mean Wind SpeedMPH, Max Gust SpeedMPH,PrecipitationIn, CloudCover, Events, WindDirDegrees
2013-7-1,83,74,64,66,64,60,93,72,51,29.90,29.85,29.79,10,8,0,17,4,24,0.58,7,Fog-Rain-Thunderstorm,351
2013-7-2,83,74,64,68,64,62,93,74,54,30.01,29.94,29.89,10,8,2,15,5,21,T,5,,151
2013-7-3,84,75,66,70,66,63,93,72,51,30.10,30.06,30.01,10,9,2,15,6,21,0.26,6,Rain,172
2013-7-4,74,71,68,70,68,65,97,91,84,30.14,30.11,30.06,10,8,2,13,5,16,0.65,8,Rain,141
2013-7-5,80,74,67,71,68,64,93,81,69,30.13,30.10,30.07,10,10,6,14,6,18,0.03,8,Rain,133
2013-7-6,75,72,68,68,66,65,97,85,73,30.12,30.10,30.08,10,8,2,10,5,18,0.95,7,Rain,200
2013-7-7,87,77,67,68,66,64,93,72,51,30.12,30.08,30.04,10,10,8,12,4,17,T,5,Rain,187
2013-7-8,90,80,69,72,69,66,90,69,47,30.14,30.10,30.04,10,10,7,13,4,16,0.00,4,,203
2013-7-9,91,84,77,72,71,69,82,69,56,30.10,30.05,29.99,10,10,10,17,8,24,T,6,,215
2013-7-10,91,81,71,77,72,67,87,76,64,30.00,29.95,29.88,10,8,0,43,8,64,0.49,7,Rain-Thunderstorm,222
2013-7-11,85,77,69,70,66,58,97,70,43,30.00,29.96,29.93,10,9,2,20,8,25,0.00,4,,1
2013-7-12,83,73,63,60,57,54,90,64,37,30.08,30.04,30.01,10,10,9,17,8,24,0.00,1,,23
2013-7-13,85,75,64,66,62,59,87,68,48,30.09,30.05,30.02,10,10,10,21,7,25,T,4,,63
2013-7-14,92,81,70,75,69,64,91,69,47,30.19,30.13,30.08,10,10,2,26,6,33,0.04,4,Rain-Thunderstorm,94
2013-7-15,92,83,74,73,69,66,87,66,44,30.29,30.24,30.19,10,10,10,13,5,17,0.00,2,,139
2013-7-16,94,84,74,72,70,67,87,66,44,30.32,30.27,30.24,10,10,10,10,3,14,0.00,2,,34
2013-7-17,95,86,77,75,72,68,85,66,46,30.31,30.25,30.18,10,9,5,15,4,20,T,4,Rain-Thunderstorm,3
2013-7-18,92,85,78,76,73,71,91,72,52,30.20,30.12,30.03,10,6,1,23,3,30,0.18,5,Rain-Thunderstorm,233
2013-7-19,92,84,76,74,70,67,79,66,52,30.05,29.99,29.91,10,9,6,16,7,22,0.00,4,,231
2013-7-20,91,84,76,72,71,68,82,66,49,29.95,29.91,29.86,10,10,7,20,8,26,0.02,4,Rain,236
2013-7-21,90,81,72,71,69,64,87,69,50,29.96,29.91,29.86,10,8,1,32,5,49,0.10,6,Rain-Thunderstorm,344
2013-7-22,83,78,72,73,71,69,100,87,74,29.91,29.84,29.78,10,6,0,20,6,23,1.82,7,Fog-Rain-Thunderstorm,198
2013-7-23,90,82,73,74,71,67,93,88,82,29.86,29.81,29.73,10,7,4,15,8,20,0.00,6,,234
2013-7-24,81,73,64,69,60,57,78,61,38,29.97,29.91,29.82,10,10,10,17,10,22,0.00,3,,360
2013-7-25,81,71,61,60,58,55,84,61,33,30.07,30.03,29.98,10,10,10,12,6,15,0.00,2,,15
2013-7-26,83,73,63,61,60,58,87,66,45,30.08,30.03,29.98,10,10,7,12,4,17,T,4,Rain,248
2013-7-27,80,73,66,65,62,56,87,69,50,29.98,29.93,29.87,10,10,5,16,8,22,0.02,6,Rain,258
2013-7-28,77,67,56,55,51,49,83,62,41,30.07,30.02,29.96,10,10,10,14,5,21,0.00,2,,273
2013-7-29,83,71,59,61,56,53,84,78,72,30.18,30.13,30.08,10,10,10,13,4,17,0.00,3,,235
2013-7-30,80,73,66,66,62,60,90,72,54,30.21,30.16,30.10,10,9,5,13,5,16,0.12,8,Rain,144
2013-7-31,78,73,67,69,66,61,93,84,74,30.11,30.04,29.96,10,9,5,14,6,17,T,8,,156